This is the latest recevied weather packets stored in our database for station/object IW3HBX-3. If no packets are shown the sender has not sent any weather packets the latest 1 day(s).
| Time | Temp. | Humidity | Pressure | Rain* | Wind** | Luminosity | Snow |
|---|---|---|---|---|---|---|---|
| 1777951194 | 15.56° C | 93% | 1014.1 hPa | 0 mm | 0.45 m/s, 36° | 0 W/m² | - |
| 1777950894 | 15.56° C | 93% | 1014.1 hPa | 0 mm | 0.89 m/s, 58° | 0 W/m² | - |
| 1777950595 | 15.56° C | 93% | 1014.2 hPa | 0 mm | 0.45 m/s, 61° | 0 W/m² | - |
| 1777950295 | 15.56° C | 93% | 1014.2 hPa | 0 mm | 0.89 m/s, 74° | 0 W/m² | - |
| 1777949995 | 15.56° C | 93% | 1014.3 hPa | 0 mm | 0.89 m/s, 72° | 0 W/m² | - |
| 1777949696 | 15.56° C | 92% | 1014.3 hPa | 0 mm | 0.45 m/s, 68° | 0 W/m² | - |
| 1777949395 | 15.56° C | 92% | 1014.3 hPa | 0 mm | 1.34 m/s, 79° | 0 W/m² | - |
| 1777949095 | 15.56° C | 92% | 1014.3 hPa | 0 mm | 0.89 m/s, 69° | 0 W/m² | - |
| 1777948795 | 15.56° C | 92% | 1014.3 hPa | 0 mm | 0 m/s | 0 W/m² | - |
| 1777948495 | 15.56° C | 92% | 1014.3 hPa | 0 mm | 0.89 m/s, 71° | 0 W/m² | - |
| 1777948195 | 15.56° C | 92% | 1014.4 hPa | 0 mm | 0.45 m/s, 66° | 0 W/m² | - |
| 1777947895 | 15° C | 92% | 1014.4 hPa | 0 mm | 0.45 m/s, 67° | 0 W/m² | - |
| 1777947595 | 15° C | 92% | 1014.5 hPa | 0 mm | 0.89 m/s, 70° | 0 W/m² | - |
| 1777947295 | 15° C | 92% | 1014.5 hPa | 0 mm | 0.45 m/s, 65° | 0 W/m² | - |
| 1777946995 | 15° C | 91% | 1014.6 hPa | 0 mm | 0.45 m/s, 71° | 0 W/m² | - |
| 1777946696 | 15° C | 91% | 1014.7 hPa | 0 mm | 0.89 m/s, 69° | 0 W/m² | - |
| 1777946396 | 15° C | 90% | 1014.7 hPa | 0 mm | 0.45 m/s, 76° | 0 W/m² | - |
| 1777946096 | 15° C | 90% | 1014.7 hPa | 0 mm | 0.89 m/s, 68° | 0 W/m² | - |
| 1777945796 | 15° C | 89% | 1014.8 hPa | 0 mm | 1.34 m/s, 65° | 0 W/m² | - |
| 1777945496 | 15° C | 88% | 1014.7 hPa | 0 mm | 0.45 m/s, 64° | 0 W/m² | - |
| 1777945196 | 15° C | 88% | 1014.8 hPa | 0 mm | 0.45 m/s, 76° | 0 W/m² | - |
| 1777944896 | 15° C | 87% | 1014.7 hPa | 0 mm | 0.89 m/s, 77° | 0 W/m² | - |
| 1777944596 | 15° C | 86% | 1014.7 hPa | 0 mm | 0.89 m/s, 79° | 0 W/m² | - |
| 1777944296 | 15° C | 86% | 1014.7 hPa | 0 mm | 0.89 m/s, 69° | 0 W/m² | - |
| 1777943996 | 15° C | 86% | 1014.8 hPa | 0 mm | 0.89 m/s, 65° | 0 W/m² | - |
* Rain latest hour (hover to see other rain measurements)
** Current wind speed in m/s (hover to see current wind gust speed)